Lapse_Rate
6.2 6.0 6.3 7.2 7.2 7.2 6.8 6.3 6.6 6.0 6.1 5.8 5.4 4.9 5.0 5.5 5.5 5.7 5.8 5.9 6.2 6.3 6.7 7.0 7.0 7.2 7.3 7.2 7.3 7.5 7.1 7.1 6.9 7.1 7.3 7.5 7.6 7.4 7.3 7.1 7.0 7.0 7.0 6.9
5.5 5.6 5.9 5.9 5.7 5.9 6.1 6.0 5.7 5.7 5.6 5.2 4.7 4.3 4.6 5.4 5.8 5.9 5.9 6.1 6.4 6.7 6.7 7.0 7.3 7.6 7.8 7.5 7.6 7.6 7.5 7.2 7.0 7.0 6.9 7.0 7.0 6.8 6.7 6.6 6.7 6.7 6.8 6.6
6.0 5.5 5.4 5.6 5.4 5.3 5.4 5.5 5.7 5.4 5.3 4.7 4.6 4.4 4.7 5.0 5.8 6.1 6.4 6.3 6.4 6.6 6.9 7.0 7.2 7.5 7.9 7.9 7.9 7.9 7.8 7.0 6.7 6.7 6.9 7.0 6.9 6.8 6.6 6.3 6.2 6.2 6.1 6.1
4.9 5.1 5.0 4.9 4.8 5.2 5.0 5.1 5.3 5.1 4.8 4.2 4.2 4.3 4.4 4.5 5.7 5.9 6.4 6.4 6.4 6.6 6.9 7.1 7.3 7.3 7.7 8.0 8.0 7.8 7.8 7.3 6.7 6.7 6.6 6.6 6.5 6.5 6.4 6.2 5.9 5.8 5.8 5.9
5.9 5.4 5.2 4.8 5.0 5.0 4.7 4.8 4.9 4.8 4.6 4.3 4.0 3.9 4.9 4.8 5.5 6.2 6.4 6.1 6.3 6.5 6.8 6.9 7.2 7.3 7.6 7.8 8.0 8.1 7.9 7.7 6.8 6.5 6.5 6.4 6.5 6.2 5.7 5.5 5.3 5.3 5.2 5.2
6.1 5.5 5.3 5.5 4.9 5.0 4.9 4.7 4.4 4.4 4.4 4.4 4.4 4.4 4.5 5.2 5.5 5.8 6.1 6.4 6.6 6.6 6.8 6.9 7.0 7.2 7.2 7.2 7.3 7.4 7.5 7.4 7.1 6.4 6.2 6.1 6.1 5.9 5.9 5.7 5.5 5.2 5.4 5.3
6.0 6.2 5.7 5.1 4.7 5.0 5.3 4.7 4.8 4.9 4.5 4.5 4.8 4.3 4.7 4.6 5.0 5.2 5.6 6.1 6.6 6.6 6.6 6.8 6.9 7.1 7.1 7.2 7.2 7.3 7.1 6.4 6.4 6.5 6.0 6.2 6.1 6.2 6.1 5.5 5.2 4.9 5.1 4.9
5.5 5.9 6.4 6.0 5.7 5.4 5.1 5.3 5.5 5.7 5.7 5.7 5.4 4.8 5.1 5.2 5.3 5.7 6.0 5.9 6.0 6.4 6.5 6.7 6.7 6.9 6.9 7.0 7.1 7.2 7.2 5.8 6.2 6.4 6.2 6.2 6.1 6.1 5.2 5.3 4.1 4.4 4.4 4.3
5.8 5.8 5.8 6.1 6.0 5.6 5.2 4.9 6.0 6.3 5.8 5.6 5.6 5.5 5.7 5.6 5.8 6.0 6.0 6.0 5.9 5.9 5.9 6.3 6.4 6.4 6.3 6.5 6.7 6.4 5.9 5.8 6.2 6.3 6.4 6.3 6.0 5.3 5.1 5.1 4.8 5.1 5.3 5.2
6.3 6.0 5.9 5.8 5.9 5.7 5.8 5.9 5.4 5.4 5.6 5.9 6.4 5.7 5.8 5.8 6.1 6.4 6.2 6.1 6.0 6.0 5.9 5.8 6.0 6.1 5.8 5.6 5.4 5.4 5.7 5.9 5.9 5.8 5.7 5.5 5.7 5.8 4.6 5.2 5.0 4.6 5.2 5.3
6.5 5.9 5.9 5.9 6.0 6.4 6.3 5.7 5.9 6.0 6.0 6.6 6.8 6.5 6.1 6.2 6.3 6.1 6.1 5.9 6.0 6.2 6.0 5.8 5.8 6.0 6.0 6.0 6.0 5.8 6.0 6.2 6.4 6.4 6.4 6.3 6.1 6.2 4.2 4.9 4.6 4.3 4.8 4.9
6.6 6.3 5.7 5.8 6.2 6.4 6.5 6.3 6.6 6.2 6.0 6.0 6.5 6.4 6.1 6.1 6.6 6.4 6.2 6.3 6.2 5.8 5.9 6.1 6.0 6.0 6.1 6.2 6.3 6.7 6.8 6.8 6.2 5.9 6.1 6.2 6.0 5.6 5.4 5.4 5.4 5.5 5.4 5.7
6.5 6.5 6.1 5.9 5.8 5.8 6.1 6.5 6.5 6.7 6.8 6.2 6.4 6.3 6.4 6.3 6.8 6.9 6.7 6.8 6.5 6.2 6.6 6.4 6.1 6.2 6.3 6.5 6.6 6.5 6.4 6.6 6.5 6.3 6.2 6.0 6.0 5.8 5.7 5.5 5.3 5.5 5.8 6.0
6.8 6.8 6.7 6.8 6.7 6.2 6.2 6.3 6.7 7.0 6.7 6.3 6.3 6.7 6.6 6.7 7.0 7.1 7.2 7.2 6.9 7.0 6.7 6.3 6.3 6.2 6.3 6.3 6.6 6.6 6.2 6.0 5.9 6.0 6.0 6.0 5.9 5.7 5.7 5.8 6.0 6.2 6.5 6.9
6.4 6.5 6.6 6.4 6.4 6.4 6.4 6.4 6.9 6.6 6.7 6.7 6.7 6.6 6.7 7.1 7.3 7.5 7.3 6.8 6.9 6.9 6.8 6.8 6.6 6.2 6.0 6.3 6.4 6.2 6.3 6.3 6.1 6.1 5.9 5.8 5.8 5.8 5.8 5.8 6.1 6.6 6.7 6.8
6.6 6.9 6.5 6.5 6.5 6.3 6.2 6.1 5.6 5.6 5.9 5.9 5.6 6.2 6.2 6.8 6.9 6.8 6.9 6.5 6.7 6.8 6.8 6.8 6.5 6.2 6.2 6.2 6.0 6.3 6.4 6.2 6.1 6.1 6.0 6.0 6.0 6.1 6.1 6.2 6.3 6.4 6.6 6.8
6.5 6.4 6.5 6.7 6.7 6.6 6.4 6.6 7.2 7.2 6.7 6.1 6.1 6.2 5.8 5.9 5.6 5.9 5.9 6.5 6.7 6.8 6.7 6.7 6.5 6.3 6.2 6.1 6.3 6.4 6.5 6.2 6.3 6.4 6.3 6.3 6.5 6.6 6.5 6.5 6.7 6.8 7.0 7.2
6.4 6.5 6.5 6.6 6.7 7.0 7.0 7.2 7.3 7.3 7.4 7.1 6.4 7.0 7.0 6.2 6.0 5.9 6.2 6.6 6.9 6.7 6.9 6.9 6.9 6.7 6.5 6.4 6.7 6.6 6.6 6.6 6.6 6.8 6.8 6.9 6.7 6.7 7.0 7.0 7.1 7.2 7.5 7.6
6.3 6.4 6.2 6.7 6.8 7.3 7.5 7.3 7.2 7.2 7.2 7.0 6.9 6.2 6.5 7.2 6.9 6.5 6.4 6.7 6.9 6.6 6.9 6.7 6.7 6.9 6.9 7.1 7.0 6.9 7.0 7.0 7.2 7.2 7.2 7.1 7.1 7.2 7.3 7.4 7.5 7.7 8.0 8.1
6.6 6.3 6.5 6.6 6.7 7.2 6.6 6.7 6.5 6.8 6.7 6.5 6.5 6.7 6.5 6.6 7.1 7.1 6.9 7.1 7.2 7.1 7.3 7.2 7.0 6.9 7.0 7.5 7.5 7.5 7.5 7.5 7.6 7.4 7.3 7.2 7.3 7.4 7.5 7.7 7.9 8.2 8.3 8.4
6.3 6.6 6.6 6.5 6.7 6.8 6.9 6.9 6.8 6.6 6.4 6.0 6.1 6.2 6.3 6.1 6.6 7.1 7.0 7.2 7.4 7.3 7.5 7.7 7.9 7.9 7.8 7.9 8.1 8.0 7.8 7.8 7.6 7.4 7.4 7.4 7.5 7.5 7.5 7.8 8.2 8.2 8.4 8.5
6.7 6.7 6.5 6.5 6.8 6.9 6.5 6.3 6.6 6.1 5.8 5.6 5.5 5.6 5.8 5.9 6.2 6.5 6.7 6.9 7.5 7.6 7.7 8.1 8.4 8.3 8.1 8.3 8.3 8.2 7.8 7.8 7.7 7.6 7.6 7.8 7.7 7.6 7.6 7.9 8.0 8.0 8.2 8.3
6.8 7.0 6.9 6.8 6.8 7.1 6.7 5.8 5.2 5.1 5.0 5.3 4.9 4.8 4.6 5.7 5.9 6.2 6.5 6.7 7.3 7.8 8.0 8.3 8.4 8.4 8.2 8.3 8.2 8.1 8.0 7.9 7.8 7.7 7.7 7.9 7.8 7.6 7.6 7.6 7.7 8.0 8.1 8.2
6.9 7.3 7.0 7.2 7.3 7.2 7.1 6.7 6.6 6.5 6.1 5.6 5.6 5.8 5.9 5.9 5.9 6.3 6.1 6.3 6.9 7.5 7.9 8.2 8.4 8.4 8.3 8.3 8.2 8.1 8.0 7.9 7.7 7.7 7.6 7.9 7.8 7.7 7.6 7.6 7.8 7.8 7.8 7.8
8.1 7.2 7.5 7.5 7.9 7.9 7.7 7.4 7.4 6.9 6.4 6.7 6.5 6.3 6.2 6.2 6.3 6.2 5.9 6.3 6.6 7.0 7.4 7.7 8.1 8.3 8.3 8.2 8.2 8.1 8.0 7.8 7.7 7.6 7.8 7.9 7.7 7.6 7.6 7.7 7.7 7.7 7.6 7.6
8.1 8.3 7.9 7.9 8.1 7.8 7.6 8.0 7.4 7.2 7.3 7.1 6.5 6.3 6.6 6.6 6.8 6.8 6.9 6.9 6.4 6.6 7.1 7.5 7.8 8.1 8.2 8.1 7.9 7.8 7.5 7.6 7.7 7.7 7.9 7.8 7.6 7.5 7.6 7.7 7.6 7.4 7.3 7.2
Wind_Speed
4 6 15 27 23 18 6 6 9 3 6 9 20 25 21 17 15 18 17 9 6 8 9 9 14 16 18 18 17 16 15 14 12 8 7 5 6 5 3 4 7 9 10 12
4 16 12 6 15 15 18 18 17 14 15 9 15 24 24 22 20 19 15 7 4 4 6 4 10 15 19 18 16 16 15 15 12 10 8 5 5 4 3 4 7 9 10 10
19 9 8 12 11 15 17 18 13 15 9 12 15 24 10 7 10 9 4 1 1 4 9 9 7 12 15 17 15 13 14 17 15 13 8 8 7 5 4 5 5 6 10 9
11 15 13 10 10 13 16 12 17 15 9 9 5 14 14 11 11 7 4 3 1 5 6 9 10 7 12 12 11 10 11 12 8 13 10 15 11 9 5 6 7 7 11 9
9 6 9 17 19 14 11 7 12 11 8 8 11 7 7 2 8 12 8 1 4 5 5 8 9 9 11 11 10 11 11 10 10 5 7 6 5 3 4 5 8 8 5 11
10 2 3 6 7 13 3 3 1 1 4 10 14 13 13 6 12 4 3 5 6 5 6 8 10 11 12 12 13 13 14 13 12 12 12 11 12 9 6 6 4 6 5 5
7 22 8 5 8 5 13 8 3 3 5 8 4 12 17 7 5 4 3 3 4 4 5 6 8 10 11 13 13 11 13 11 11 12 10 10 11 9 8 5 3 2 4 2
3 4 14 14 22 9 16 14 6 6 6 4 1 9 4 1 4 6 5 4 4 5 3 4 7 9 11 13 14 13 13 12 11 12 13 10 11 8 8 9 4 5 4 5
6 6 2 6 13 15 7 13 10 5 2 6 8 11 6 5 4 6 7 6 6 4 3 4 6 9 12 16 19 20 15 12 12 11 11 13 11 12 10 12 10 5 7 8
1 6 6 3 6 14 14 7 4 3 5 9 10 11 11 9 10 9 9 10 8 7 7 8 7 10 9 10 8 7 9 10 9 9 5 4 5 8 5 11 11 10 9 9
4 5 4 4 7 12 9 15 4 3 6 6 9 10 4 12 14 15 12 11 11 10 11 11 12 11 11 11 10 9 8 9 8 7 8 8 7 9 9 8 9 9 8 8
6 3 9 16 7 7 11 14 23 8 10 5 12 16 1 6 13 14 14 13 13 12 13 13 15 13 11 11 11 10 9 9 8 8 7 7 6 7 7 8 9 9 9 7
7 3 7 9 6 3 9 9 15 23 5 19 11 11 3 6 14 16 18 15 14 14 14 13 12 12 13 12 12 11 11 10 10 9 8 8 8 8 8 9 10 10 10 9
4 6 9 15 6 3 5 13 9 19 12 15 12 15 6 9 15 17 17 17 13 13 12 12 13 15 13 12 12 12 10 9 9 9 8 9 10 10 10 11 11 12 12 13
4 10 8 10 6 5 3 8 7 8 15 9 12 18 15 15 18 19 19 16 12 11 12 13 13 12 10 11 10 10 10 10 10 10 10 9 8 9 10 11 12 12 12 11
2 3 6 8 14 11 10 14 15 13 12 10 8 16 3 12 12 6 12 14 13 14 15 14 14 12 13 14 14 13 12 11 11 12 11 10 11 10 10 11 12 11 11 10
3 3 5 8 10 10 9 22 21 19 15 8 8 10 18 15 6 9 16 21 18 15 15 15 14 13 13 13 14 14 14 13 13 11 11 10 9 9 8 11 11 10 9 9
3 2 5 9 7 12 13 11 21 22 19 17 15 18 18 15 11 15 25 22 17 15 14 15 13 12 13 12 14 12 13 13 14 11 11 12 12 10 11 10 10 10 9 9
15 6 4 5 12 16 6 3 7 13 5 5 16 12 8 10 12 19 3 8 10 13 9 11 11 10 9 11 13 13 13 14 13 13 13 13 13 13 12 11 10 9 8 7
12 11 6 4 4 4 5 8 11 5 6 3 6 6 7 9 7 3 12 11 14 13 11 9 8 8 9 10 14 14 13 14 13 14 13 12 13 13 12 11 12 10 10 9
3 5 12 10 7 6 4 8 5 8 3 7 10 11 11 6 5 9 11 11 11 12 13 10 8 8 8 11 15 14 13 15 10 12 12 12 12 11 9 10 7 9 9 9
2 2 2 4 7 8 10 7 7 5 3 6 10 12 12 11 11 6 10 10 11 15 14 9 8 6 5 9 12 12 12 10 13 12 12 11 11 8 8 11 8 9 10 10
4 5 3 5 5 8 7 9 5 6 7 11 12 11 11 12 8 9 9 9 11 13 9 7 6 4 6 10 10 11 10 12 13 13 12 11 11 9 9 10 9 8 9 8
4 8 8 12 14 13 11 14 14 13 14 16 15 13 10 10 9 9 8 9 10 11 9 4 6 7 6 4 8 10 12 12 12 12 11 10 10 9 9 7 8 7 8 7
9 4 8 13 19 19 19 19 18 11 12 16 16 15 14 14 14 13 12 12 10 10 8 7 8 9 7 7 8 11 12 12 12 11 10 9 7 9 8 7 8 7 7 9
6 14 7 11 19 14 20 22 21 19 17 17 16 17 16 15 16 16 14 11 8 9 7 8 10 10 10 10 10 13 14 14 13 10 8 7 7 6 6 6 5 5 8 12
Wind_Direction
191 210 210 206 211 244 271 247 260 239 265 293 282 283 287 282 278 277 277 270 279 293 292 246 218 206 201 198 190 187 175 171 170 159 153 156 161 140 109 132 146 155 154 158
169 239 228 231 224 235 247 264 270 278 267 261 282 277 280 269 261 253 257 223 259 303 313 297 232 207 206 206 193 183 180 169 176 169 171 152 142 122 132 118 135 153 149 157
220 223 222 200 218 222 237 244 257 261 295 269 292 286 263 268 250 248 129 100 338 314 302 299 273 238 215 213 202 191 174 173 179 168 131 111 94 106 135 150 160 147 145 156
254 242 238 210 223 211 247 217 244 259 270 284 3 295 273 262 246 192 161 158 281 319 316 300 280 260 229 215 204 176 163 167 160 161 164 166 175 171 169 162 155 144 145 137
218 173 216 228 236 202 254 188 218 240 250 289 255 259 283 199 246 240 201 116 53 30 22 27 54 71 64 60 76 91 97 94 120 127 151 156 135 70 108 124 137 129 134 141
248 298 250 226 205 201 160 185 81 240 261 264 240 216 285 268 261 265 90 50 35 42 65 69 79 82 80 77 81 88 96 97 98 99 93 86 81 71 57 48 76 86 50 343
257 244 233 194 216 183 196 187 243 238 216 257 292 214 252 315 1 8 110 94 83 77 85 98 103 104 104 101 102 101 99 98 106 114 113 118 116 113 118 90 137 93 89 70
221 300 193 206 215 203 194 186 190 222 214 275 253 240 248 110 93 89 92 103 93 81 56 97 116 120 121 119 120 125 127 139 144 147 147 146 138 141 153 138 161 150 131 134
191 254 196 217 209 200 182 215 213 264 235 285 245 259 240 164 139 132 130 124 116 108 113 129 139 146 155 150 149 155 153 153 160 152 152 153 158 155 163 157 168 142 175 153
228 284 218 170 171 220 217 177 170 187 222 238 250 256 239 192 186 173 162 157 159 164 163 163 173 155 156 153 146 138 150 153 153 146 151 156 150 128 157 138 153 146 175 143
172 221 224 159 191 190 204 230 228 186 228 243 260 251 184 213 186 179 171 169 176 180 175 174 170 167 170 172 171 159 155 152 152 135 145 144 137 144 152 129 145 151 151 131
214 218 256 247 249 203 216 227 207 210 209 224 254 261 142 226 185 175 175 178 187 192 185 182 180 177 180 182 177 173 168 163 164 157 144 134 135 134 143 145 142 149 139 132
175 224 262 263 232 204 224 218 218 224 244 222 228 251 90 174 177 185 179 195 197 198 198 191 187 192 194 192 187 186 185 178 161 153 151 147 153 162 157 155 150 148 145 148
181 190 229 250 273 337 275 236 224 211 220 235 224 248 212 191 184 189 204 207 198 200 202 199 207 207 203 204 198 194 194 181 166 157 165 169 171 166 158 153 152 152 153 153
232 225 206 244 231 237 238 284 289 238 241 243 249 226 236 201 196 197 204 218 224 208 208 208 208 208 205 208 207 202 192 179 173 164 171 173 160 156 152 153 159 160 164 158
222 243 188 242 237 215 230 236 255 259 270 268 269 282 274 238 215 184 261 251 252 234 227 221 208 203 205 206 205 196 183 180 174 173 168 155 156 159 163 159 156 149 143 144
202 219 201 251 249 229 235 225 223 233 220 213 229 237 281 296 267 214 259 277 258 241 225 228 222 212 207 204 197 198 185 167 173 173 159 145 144 150 152 150 143 144 145 151
257 258 239 254 218 230 249 245 220 220 229 212 215 230 237 244 266 230 251 264 265 246 235 232 230 221 216 205 195 181 172 176 164 157 149 156 158 150 150 150 150 153 154 160
215 200 278 253 228 250 260 185 188 192 232 345 244 267 321 324 246 247 349 349 317 305 274 244 232 220 212 194 186 170 168 169 167 166 163 163 160 159 158 164 168 158 151 156
217 246 234 237 284 293 12 351 346 282 210 24 42 16 347 345 213 200 334 332 317 310 288 266 238 218 207 189 174 167 168 169 177 173 168 162 161 164 169 170 171 169 161 160
199 222 233 247 251 259 360 314 311 211 50 1 351 337 322 328 283 292 305 303 300 297 297 284 237 215 208 181 175 176 169 183 163 147 151 159 166 161 165 163 166 162 156 154
271 320 296 286 234 229 8 355 359 287 204 277 288 287 277 273 283 260 271 279 300 314 317 289 274 247 212 184 176 173 174 141 139 143 147 153 154 153 157 159 161 163 155 153
253 222 270 240 271 289 286 250 278 212 233 220 241 254 256 275 274 273 268 292 300 311 318 293 261 230 202 198 173 151 142 143 139 144 145 157 154 156 159 159 155 162 162 162
254 251 258 281 269 290 292 285 276 269 263 264 260 260 240 248 263 281 282 281 296 311 314 272 237 197 190 166 166 147 145 146 145 145 147 153 152 149 157 159 166 170 174 167
246 315 265 272 278 282 273 275 279 286 267 263 260 257 257 260 273 275 283 284 295 303 294 235 216 212 178 159 151 148 148 152 139 140 136 146 146 153 163 170 176 180 188 180
238 250 242 265 271 274 275 281 286 284 280 274 269 268 252 250 266 273 271 269 260 286 277 235 218 199 183 171 165 165 164 158 147 139 142 151 147 156 161 160 146 159 172 176